01:27
Airports
History
Links
Donate
Help keep this website running!
PayPal
Bitcoin
This page is community maintained. The information is intended for PC simulator navigation or reference.
Always use approved charts for navigation.
VT49
Angus Airways
Angus Airways (VT49)
Moretown, Vermont, United States (5660)
4
Lat/Lng:44° 13' 48.21" N / 72° 47' 28.42" W
44.230059 / -72.791227
Elevation:670'ft / 204mMSL
ID / ICAO:VT49
Runways:1
Longest:09-27
Grass 451m / 1,478ft
Nearby Weather00:51 GMT 2017-10-20
Nearby weather at KMPV, Edward F Knapp State located 11.5 nautical miles from VT49
Altimeter: 29.97
Visibility: 10.0 statute miles
Wind: 5 knots (from 240°)
Temp: 18°c / 64°f
Humidity: 42.3%

METAR: KMPV 200051Z AUTO 24005KT 10SM BKN070 18/05 A2997 RMK AO2 SLP148 T01780050

(Powered by phpweather)
Nearby VORs <50NM
Nearby NDBs
Runway 09 / 27
Dimensions:450.6 x 15.2m 1478' x 50'ft
Surface:Grass
Runway 09 [A]Runway 27 [B]
Heading:074°TH 254°TH
Lat:
Lng:
44° 13' 46.17"N
72° 47' 38.35"W
44° 13' 50.25"N
72° 47' 18.48"W
User Notes and Comments
44° 13' 48.21" N / 72° 47' 28.42" W
Distance To
Airport ID:
Nearby Airports
(R) Mad River Fly-in 0.3 NM
VT29 SW 219°
(R) Ketcham Lndg Area 5.1 NM
VT30 SSW 204°
(U) Warren-sugarbush 8.0 NM
0B7 SSW 192°
(R) Teal Farm 8.1 NM
VT01 WNW 296°
(U) Edward F Knapp State 11.5 NM
KMPV ( WX ) E 99°
4 Maules Roost 13.6 NM
VT03 SW 223°
(R) Carriers Skypark 19.1 NM
VT31 ESE 115°
VFR Chart
Flight Planning at SkyVector.com